Weather History for Bryce Canyon, UT

Change the Weather History Date:

Thursday, May 23, 2013

  Actual Average Record
Temperature  
Mean Temperature 56 °F -  
Max Temperature 71 °F 65 °F 82 °F (2000)
Min Temperature 37 °F 32 °F 22 °F (1965)
Degree Days  
Heating Degree Days 9    
Growing Degree Days 6 (Base 50)    
Moisture  
Dew Point 11 °F    
Average Humidity 19    
Maximum Humidity 37    
Minimum Humidity 7    
Precipitation  
Precipitation 0.00 in - - ()
Sea Level Pressure  
Sea Level Pressure 29.65 in    
Wind  
Wind Speed 15 mph (South)    
Max Wind Speed 29 mph    
Max Gust Speed 47 mph    
Visibility 10 miles    
Events      
Averages and records for this station are not official NWS values.
T = Trace of Precipitation, MM = Missing Value Source: NWS Daily Summary

Daily Weather History Graph

Daily Weather History Graph

Search for Another Location

Airport:

Trip Planner

Search our weather history database for the weather conditions in past years. The results will help you decide how hot, cold, wet, or windy it might be!

Date:

Astronomy

May. 23, 2013 Rise Set
Actual Time 6:12 AM MDT 8:38 PM MDT
Civil Twilight 5:42 AM MDT 9:08 PM MDT
Nautical Twilight 5:05 AM MDT 9:45 PM MDT
Astronomical Twilight 4:24 AM MDT 10:26 PM MDT
Moon 7:16 PM MDT (5/23) 4:58 AM MDT (5/23)
Length of Visible Light 15h 25m
Length of Day
14h 25m
Waxing Gibbous, 97% of the Moon is Illuminated
May 23
Waxing Gibbous
May 24
Full
May 31
Last Quarter
Jun 8
New
Jun 16
First Quarter

Hourly Weather History & Observations

Time (MDT) Temp. Windchill Dew Point Humidity Pressure Visibility Wind Dir Wind Speed Gust Speed Precip Events Conditions
12:53 AM 48.0 °F - 14.0 °F 26% 29.60 in 10.0 mi South 8.1 mph - N/A   Clear
1:53 AM 48.9 °F - 15.1 °F 26% 29.61 in 10.0 mi SSW 8.1 mph - N/A   Clear
2:53 AM 42.1 °F 36.1 °F 17.1 °F 37% 29.62 in 10.0 mi South 10.4 mph - N/A   Clear
3:53 AM 46.0 °F 41.0 °F 14.0 °F 28% 29.59 in 10.0 mi SSE 10.4 mph - N/A   Clear
4:53 AM 44.1 °F 38.1 °F 15.1 °F 31% 29.61 in 10.0 mi SSE 11.5 mph - N/A   Clear
5:53 AM 42.1 °F 35.7 °F 15.1 °F 34% 29.61 in 10.0 mi SE 11.5 mph - N/A   Clear
6:53 AM 44.1 °F 38.6 °F 18.0 °F 35% 29.62 in 10.0 mi SSE 10.4 mph - N/A   Clear
7:53 AM 53.1 °F - 21.0 °F 29% 29.61 in 10.0 mi SSE 17.3 mph - N/A   Clear
8:53 AM 55.9 °F - 21.0 °F 26% 29.62 in 10.0 mi South 17.3 mph 21.9 mph N/A   Clear
9:53 AM 59.0 °F - 10.9 °F 15% 29.63 in 10.0 mi South 18.4 mph 28.8 mph N/A   Clear
10:53 AM 61.0 °F - 6.1 °F 11% 29.65 in 10.0 mi South 24.2 mph 31.1 mph N/A   Clear
11:53 AM 64.0 °F - 6.1 °F 10% 29.64 in 10.0 mi South 26.5 mph 40.3 mph N/A   Clear
12:53 PM 66.0 °F - 7.0 °F 10% 29.66 in 10.0 mi SSE 26.5 mph 35.7 mph N/A   Clear
1:53 PM 68.0 °F - 10.0 °F 11% 29.63 in 10.0 mi South 26.5 mph 35.7 mph N/A   Clear
2:53 PM 69.1 °F - 10.9 °F 11% 29.65 in 10.0 mi South 24.2 mph 38.0 mph N/A   Clear
3:53 PM 70.0 °F - 6.1 °F 8% 29.63 in 10.0 mi SSW 28.8 mph 41.4 mph N/A   Clear
4:53 PM 70.0 °F - 5.0 °F 8% 29.64 in 10.0 mi South 25.3 mph 38.0 mph N/A   Clear
5:53 PM 69.1 °F - 3.0 °F 7% 29.65 in 10.0 mi SSW 24.2 mph 47.2 mph N/A   Clear
6:53 PM 66.0 °F - 6.1 °F 9% 29.65 in 10.0 mi SW 19.6 mph 28.8 mph N/A   Clear
7:53 PM 63.0 °F - 5.0 °F 10% 29.65 in 10.0 mi SSW 23.0 mph 27.6 mph N/A   Clear
8:53 PM 57.9 °F - 5.0 °F 12% 29.69 in 10.0 mi SW 16.1 mph 23.0 mph N/A   Clear
9:53 PM 53.1 °F - 8.1 °F 16% 29.73 in 10.0 mi South 9.2 mph - N/A   Clear
10:53 PM 43.0 °F 38.8 °F 8.1 °F 24% 29.80 in 10.0 mi SSW 6.9 mph - N/A   Clear
11:53 PM 37.9 °F 32.7 °F 9.0 °F 30% 29.83 in 10.0 mi WSW 6.9 mph - N/A   Clear